Location: Altenst�hlen
(53.5567°N, 8.9425°E)
Time: 09:33:09
(UTC+00:00)

ARGOS - Pass Details

Date: 23 October 2019
Orbit: 820 x 835 km, 98.5° (Epoch: 14 November)

Event Time Altitude Azimuth Distance (km) Brightness Sun altitude
Exits shadow 20:09:22 36° 273° (W) 1,297 4.4 -35.0°
Drops below altitude 10° 20:14:03 10° 331° (NNW) 2,459 6.2 -35.6°
Sets 20:16:37 0° 340° (NNW) 3,398 7.0 -35.9°
